RASSVET-3 5

导读

RASSVET-3 5(NORAD编号68364)是俄罗斯"黎明-3"(Rassvet-3)低轨互联网卫星星座中的一颗卫星,由俄罗斯私营航天企业Buro 1440主导研发,属于俄罗斯版"星链"项目的首批量产卫星。 该卫星于2026年3月23日由联盟-2火箭发射升空,单星质量约370公斤,进入初始轨道参数为近地点290公里、远地点324公里,轨道倾角82.3度。卫星搭载5G NTN非地面网络通信系统与星间激光通信终端,用于提供全球低轨互联网服务,旨在构建俄罗斯自主可控的太空通信网络,摆脱对境外卫星系统的依赖。

Basic Information
目录编号:
68364
目录名称:
RASSVET-3 5
国际标识:
2026-061E
轨道中心:
EARTH
卫星名称:
RASSVET-3 5
卫星全名:
RASSVET-3 5
卫星状态:
在轨 (已飞行166 天)
发射日期:
2026-03-23 UTC
国别 :
俄罗斯(独联体) (CIS)
星等 :
--
Orbit Information
数据来源 国际轨道数据
星历时间: 2026-09-04T10:07:57+0800
1天前
查看轨道信息
半长轴: 6889.009km
偏心率: 0.0002688
轨道倾角: 82.295°
近地点辐角 83.484°
升交点赤经 294.586°
平近点角 276.669°
近地点: 509.02km
远地点: 512.724km
周期: 94.841分钟
每日圈数: 15.183353
Detailed Information
使用方式:
暂无
2D Orbit Map
3D Orbit Map
Orbit Altitude Analysis Chart
Orbit Inclination Analysis Chart
Orbit Comprehensive Analysis Chart
View Comprehensive Chart
Conjunction Data List
Event ID Objects TCA Miss Dist (km) Collision Risk Probability Collision Risk Index (CRI) Action
CDM_260907-014206-836406-901221
2026-09-07T
01:42:38+0000
2.703 km
极远距离
1.524741E-6 低风险 0.39
CDM_260905-123606-739206-836422
HAWK-13A (67392)
2026-09-05T
12:36:27+0000
2.278 km
极远距离
1.264638E-6 低风险 0.37